Regional Weather Roundup
Issued by NWS Green Bay, WI

Home | Current Version | Previous Version | Text Only | Print | Product List | Glossary On
Versions: 1 2 3 4 5 6 7 8 9 10 11 12 13 14 15 16 17 18 19 20 21 22 23 24 25 26 27 28 29 30 31 32 33 34 35 36 37 38 39 40 41 42 43 44 45 46 47 48 49 50
000
ASUS43 KGRB 131911
RWRGRB

NORTH-CENTRAL AND NORTHEAST WISCONSIN REGIONAL WEATHER ROUNDUP
NATIONAL WEATHER SERVICE GREEN BAY WI
100 PM CST WED DEC 13 2017

WIZ005-009-010>012-018-019-132000-
NORTH CENTRAL WISCONSIN

CITY           SKY/WX    TMP DP  RH WIND       PRES   REMARKS
IRONWOOD       LGT SNOW  16  11  80 NE8       29.57R WCI   5
MANITOWISH WTR LGT SNOW  15  12  89 N8        29.49R WCI   3
ARBOR VITAE    LGT SNOW  17  12  83 NE6       29.47R WCI   8
EAGLE RIVER    LGT SNOW  15  10  81 NE10      29.46R WCI   2
LAND O LAKES   LGT SNOW  16  12  84 NE9       29.50R WCI   4
RHINELANDER    LGT SNOW  16  13  88 NE8G17    29.43R FOG     WCI   5
PHILLIPS       LGT SNOW  15  11  84 N9        29.47R WCI   3
ANTIGO         LGT SNOW  18  15  88 NE13      29.38R WCI   5
TOMAHAWK       LGT SNOW  16  12  83 N5        29.44R WCI   9
MERRILL        LGT SNOW  19  15  85 NE10      29.41S WCI   7
$$

WIZ013-073-132000-
NORTHEAST WISCONSIN

CITY           SKY/WX    TMP DP  RH WIND       PRES   REMARKS
IRON MOUNTAIN  SNOW      17  12  80 NE12G17   29.48R VSB 1/2 WCI   4
MARINETTE      LGT SNOW  26  24  92 E21       29.44F VSB 3/4
OCONTO         CLOUDY    26  24  90 E10G16    29.41S VSB 3/4
$$

WIZ017-030-035>037-045-132000-
CENTRAL WISCONSIN

CITY           SKY/WX    TMP DP  RH WIND       PRES   REMARKS
MEDFORD        LGT SNOW  16  11  81 N13       29.42R WCI   3
WAUSAU         LGT SNOW  20  16  84 NE7       29.37S FOG
MOSINEE        LGT SNOW  19  18  93 N8        29.38S WCI   9
MARSHFIELD     LGT SNOW  19  14  81 N13       29.39R WCI   6
WISC RAPIDS    LGT SNOW  22  18  85 N12       29.38S FOG
STEVENS POINT  MIX PCPN  19  17  92 N12       29.37S WCI   6
WAUPACA        CLOUDY    28  23  81 N8        29.35S
SHAWANO        LGT SNOW  28  26  89 E12       29.36F VSB 3/4
CLINTONVILLE   NOT AVBL
WAUTOMA        CLOUDY    24  20  84 N8        29.34S
$$

WIZ038-039-048-051-132000-
FOX VALLEY

CITY           SKY/WX    TMP DP  RH WIND       PRES   REMARKS
NWS GREEN BAY  SNOW      28  24  85 E15       29.35S VSB 1/2
APPLETON       LGT SNOW  27  23  86 CALM      29.30F
OSHKOSH        LGT SNOW  27  24  89 CALM      29.31S VSB 3/4
FOND DU LAC    LGT SNOW  27  22  81 NE5       29.30F VSB 3/4
$$

WIZ022-050-052-132000-
EAST CENTRAL WISCONSIN

CITY           SKY/WX    TMP DP  RH WIND       PRES   REMARKS
EPHRAIM        SNOW      24  22  92 E8        29.44F VSB 1/2
WASHINGTON ISL NOT AVBL
STURGEON BAY   SNOW      26  23  88 E13       29.42F VSB 1/2
MANITOWOC      SNOW      26  24  92 E25       29.32F VSB 1/4
SHEBOYGAN      LGT SNOW  28  27  96 SW5       29.30F FOG
$$

LMZ563-521-522-541>543-132000-
LAKESHORE

STATION/POSITION TIME  TEMP    WIND        PRES    VSBY  WAVE
                       AIR SEA DIR/SP/G                  HT/PER
                 (UTC) (F)     (DEG/KT/KT) (MB)    (MI)  (FT/S)
SHEBOYGAN LKSHOR 1800   31     190/ 15/ 18  993.7F
KEWAUNEE LKSHORE 1842   27     110/ 18/ 28  994.1F
NORTHPORT PIER   1745   25      90/ 21      999.0
MENOMINEE LKSHOR 1842   27      70/ 19/ 23  996.9F
$$




USA.gov is the U.S. government's official web portal to all federal, state and local government web resources and services.